Year,Month,Day,Hour,Minute,Value (Times are PST for temperature in C)
2020,05,04,00,00,6.40
2020,05,04,00,01,6.40
2020,05,04,00,02,6.40
2020,05,04,00,03,6.40
2020,05,04,00,04,6.40
2020,05,04,00,05,6.40
2020,05,04,00,06,6.40
2020,05,04,00,07,6.40
2020,05,04,00,08,6.40
2020,05,04,00,09,6.40
2020,05,04,00,10,6.40
2020,05,04,00,11,6.40
2020,05,04,00,12,6.40
2020,05,04,00,13,6.40
2020,05,04,00,14,6.40
2020,05,04,00,15,6.40
2020,05,04,00,16,6.40
2020,05,04,00,17,6.30
2020,05,04,00,18,6.30
2020,05,04,00,19,6.30
2020,05,04,00,20,6.30
2020,05,04,00,21,6.30
2020,05,04,00,22,6.30
2020,05,04,00,23,6.30
2020,05,04,00,24,6.30
2020,05,04,00,25,6.30
2020,05,04,00,26,6.30
2020,05,04,00,27,6.30
2020,05,04,00,28,6.30
2020,05,04,00,29,6.30
2020,05,04,00,30,6.30
2020,05,04,00,31,6.30
2020,05,04,00,32,6.30
2020,05,04,00,33,6.30
2020,05,04,00,34,6.30
2020,05,04,00,35,6.30
2020,05,04,00,36,6.30
2020,05,04,00,37,6.20
2020,05,04,00,38,6.30
2020,05,04,00,39,6.20
2020,05,04,00,40,6.20
2020,05,04,00,41,6.20
2020,05,04,00,42,6.20
2020,05,04,00,43,6.20
2020,05,04,00,44,6.20
2020,05,04,00,45,6.20
2020,05,04,00,46,6.10
2020,05,04,00,47,6.10
2020,05,04,00,48,6.20
2020,05,04,00,49,6.10
2020,05,04,00,50,6.10
2020,05,04,00,51,6.10
2020,05,04,00,52,6.10
2020,05,04,00,53,6.10
2020,05,04,00,54,6.10
2020,05,04,00,55,6.10
2020,05,04,00,56,6.10
2020,05,04,00,57,6.10
2020,05,04,00,58,6.10
2020,05,04,00,59,6.10
2020,05,04,01,00,6.00
2020,05,04,01,01,6.10
2020,05,04,01,02,6.00
2020,05,04,01,03,6.00
2020,05,04,01,04,6.00
2020,05,04,01,05,5.90
2020,05,04,01,06,5.90
2020,05,04,01,07,5.90
2020,05,04,01,08,5.90
2020,05,04,01,09,5.90
2020,05,04,01,10,5.80
2020,05,04,01,11,5.80
2020,05,04,01,12,5.80
2020,05,04,01,13,5.80
2020,05,04,01,14,5.80
2020,05,04,01,15,5.70
2020,05,04,01,16,5.70
2020,05,04,01,17,5.70
2020,05,04,01,18,5.70
2020,05,04,01,19,5.70
2020,05,04,01,20,5.70
2020,05,04,01,21,5.60
2020,05,04,01,22,5.60
2020,05,04,01,23,5.60
2020,05,04,01,24,5.50
2020,05,04,01,25,5.50
2020,05,04,01,26,5.50
2020,05,04,01,27,5.50
2020,05,04,01,28,5.40
2020,05,04,01,29,5.40
2020,05,04,01,30,5.40
2020,05,04,01,31,5.30
2020,05,04,01,32,5.30
2020,05,04,01,33,5.30
2020,05,04,01,34,5.30
2020,05,04,01,35,5.30
2020,05,04,01,36,5.30
2020,05,04,01,37,5.30
2020,05,04,01,38,5.30
2020,05,04,01,39,5.30
2020,05,04,01,40,5.30
2020,05,04,01,41,5.20
2020,05,04,01,42,5.20
2020,05,04,01,43,5.20
2020,05,04,01,44,5.20
2020,05,04,01,45,5.20
2020,05,04,01,46,5.10
2020,05,04,01,47,5.10
2020,05,04,01,48,5.10
2020,05,04,01,49,5.10
2020,05,04,01,50,5.10
2020,05,04,01,51,5.10
2020,05,04,01,52,5.10
2020,05,04,01,53,5.10
2020,05,04,01,54,5.10
2020,05,04,01,55,5.10
2020,05,04,01,56,5.00
2020,05,04,01,57,5.00
2020,05,04,01,58,5.00
2020,05,04,01,59,5.00
2020,05,04,02,00,4.90
2020,05,04,02,01,4.90
2020,05,04,02,02,4.90
2020,05,04,02,03,4.90
2020,05,04,02,04,4.90
2020,05,04,02,05,4.80
2020,05,04,02,06,4.80
2020,05,04,02,07,4.80
2020,05,04,02,08,4.80
2020,05,04,02,09,4.80
2020,05,04,02,10,4.80
2020,05,04,02,11,4.80
2020,05,04,02,12,4.80
2020,05,04,02,13,4.80
2020,05,04,02,14,4.70
2020,05,04,02,15,4.70
2020,05,04,02,16,4.70
2020,05,04,02,17,4.70
2020,05,04,02,18,4.60
2020,05,04,02,19,4.60
2020,05,04,02,20,4.60
2020,05,04,02,21,4.60
2020,05,04,02,22,4.60
2020,05,04,02,23,4.60
2020,05,04,02,24,4.60
2020,05,04,02,25,4.60
2020,05,04,02,26,4.60
2020,05,04,02,27,4.60
2020,05,04,02,28,4.60
2020,05,04,02,29,4.60
2020,05,04,02,30,4.60
2020,05,04,02,31,4.50
2020,05,04,02,32,4.50
2020,05,04,02,33,4.40
2020,05,04,02,34,4.40
2020,05,04,02,35,4.40
2020,05,04,02,36,4.30
2020,05,04,02,37,4.30
2020,05,04,02,38,4.30
2020,05,04,02,39,4.20
2020,05,04,02,40,4.20
2020,05,04,02,41,4.20
2020,05,04,02,42,4.10
2020,05,04,02,43,4.10
2020,05,04,02,44,4.10
2020,05,04,02,45,4.10
2020,05,04,02,46,4.10
2020,05,04,02,47,4.10
2020,05,04,02,48,4.10
2020,05,04,02,49,4.10
2020,05,04,02,50,4.10
2020,05,04,02,51,4.10
2020,05,04,02,52,4.10
2020,05,04,02,53,4.10
2020,05,04,02,54,4.10
2020,05,04,02,55,4.10
2020,05,04,02,56,4.10
2020,05,04,02,57,4.10
2020,05,04,02,58,4.10
2020,05,04,02,59,4.10
2020,05,04,03,00,4.10
2020,05,04,03,01,4.10
2020,05,04,03,02,4.10
2020,05,04,03,03,4.00
2020,05,04,03,04,4.00
2020,05,04,03,05,3.90
2020,05,04,03,06,3.90
2020,05,04,03,07,3.90
2020,05,04,03,08,3.90
2020,05,04,03,09,3.80
2020,05,04,03,10,3.80
2020,05,04,03,11,3.80
2020,05,04,03,12,3.80
2020,05,04,03,13,3.70
2020,05,04,03,14,3.70
2020,05,04,03,15,3.70
2020,05,04,03,16,3.70
2020,05,04,03,17,3.70
2020,05,04,03,18,3.70
2020,05,04,03,19,3.60
2020,05,04,03,20,3.60
2020,05,04,03,21,3.60
2020,05,04,03,22,3.60
2020,05,04,03,23,3.60
2020,05,04,03,24,3.60
2020,05,04,03,25,3.60
2020,05,04,03,26,3.60
2020,05,04,03,27,3.60
2020,05,04,03,28,3.60
2020,05,04,03,29,3.60
2020,05,04,03,30,3.60
2020,05,04,03,31,3.60
2020,05,04,03,32,3.50
2020,05,04,03,33,3.50
2020,05,04,03,34,3.50
2020,05,04,03,35,3.40
2020,05,04,03,36,3.40
2020,05,04,03,37,3.40
2020,05,04,03,38,3.40
2020,05,04,03,39,3.40
2020,05,04,03,40,3.40
2020,05,04,03,41,3.40
2020,05,04,03,42,3.40
2020,05,04,03,43,3.40
2020,05,04,03,44,3.30
2020,05,04,03,45,3.30
2020,05,04,03,46,3.30
2020,05,04,03,47,3.30
2020,05,04,03,48,3.30
2020,05,04,03,49,3.30
2020,05,04,03,50,3.30
2020,05,04,03,51,3.30
2020,05,04,03,52,3.20
2020,05,04,03,53,3.20
2020,05,04,03,54,3.20
2020,05,04,03,55,3.20
2020,05,04,03,56,3.20
2020,05,04,03,57,3.20
2020,05,04,03,58,3.20
2020,05,04,03,59,3.10
2020,05,04,04,00,3.10
2020,05,04,04,01,3.10
2020,05,04,04,02,3.10
2020,05,04,04,03,3.00
2020,05,04,04,04,3.00
2020,05,04,04,05,3.00
2020,05,04,04,06,2.90
2020,05,04,04,07,2.90
2020,05,04,04,08,2.90
2020,05,04,04,09,2.90
2020,05,04,04,10,2.90
2020,05,04,04,11,2.90
2020,05,04,04,12,2.90
2020,05,04,04,13,2.90
2020,05,04,04,14,2.90
2020,05,04,04,15,2.90
2020,05,04,04,16,3.00
2020,05,04,04,17,3.00
2020,05,04,04,18,3.00
2020,05,04,04,19,3.00
2020,05,04,04,20,3.00
2020,05,04,04,21,3.00
2020,05,04,04,22,3.00
2020,05,04,04,23,3.00
2020,05,04,04,24,3.00
2020,05,04,04,25,3.10
2020,05,04,04,26,3.10
2020,05,04,04,27,3.10
2020,05,04,04,28,3.10
2020,05,04,04,29,3.10
2020,05,04,04,30,3.00
2020,05,04,04,31,3.00
2020,05,04,04,32,3.00
2020,05,04,04,33,3.10
2020,05,04,04,34,3.10
2020,05,04,04,35,3.10
2020,05,04,04,36,3.10
2020,05,04,04,37,3.00
2020,05,04,04,38,3.00
2020,05,04,04,39,3.00
2020,05,04,04,40,3.00
2020,05,04,04,41,2.90
2020,05,04,04,42,2.90
2020,05,04,04,43,2.90
2020,05,04,04,44,2.90
2020,05,04,04,45,2.90
2020,05,04,04,46,2.90
2020,05,04,04,47,2.80
2020,05,04,04,48,2.80
2020,05,04,04,49,2.80
2020,05,04,04,50,2.70
2020,05,04,04,51,2.70
2020,05,04,04,52,2.70
2020,05,04,04,53,2.70
2020,05,04,04,54,2.70
2020,05,04,04,55,2.70
2020,05,04,04,56,2.70
2020,05,04,04,57,2.70
2020,05,04,04,58,2.80
2020,05,04,04,59,2.80
2020,05,04,05,00,2.80
2020,05,04,05,01,2.80
2020,05,04,05,02,2.80
2020,05,04,05,03,2.80
2020,05,04,05,04,2.80
2020,05,04,05,05,2.80
2020,05,04,05,06,2.80
2020,05,04,05,07,2.80
2020,05,04,05,08,2.80
2020,05,04,05,09,2.80
2020,05,04,05,10,2.80
2020,05,04,05,11,2.70
2020,05,04,05,12,2.70
2020,05,04,05,13,2.70
2020,05,04,05,14,2.70
2020,05,04,05,15,2.70
2020,05,04,05,16,2.60
2020,05,04,05,17,2.60
2020,05,04,05,18,2.60
2020,05,04,05,19,2.60
2020,05,04,05,20,2.50
2020,05,04,05,21,2.50
2020,05,04,05,22,2.40
2020,05,04,05,23,2.40
2020,05,04,05,24,2.40
2020,05,04,05,25,2.40
2020,05,04,05,26,2.40
2020,05,04,05,27,2.30
2020,05,04,05,28,2.30
2020,05,04,05,29,2.30
2020,05,04,05,30,2.30
2020,05,04,05,31,2.30
2020,05,04,05,32,2.30
2020,05,04,05,33,2.30
2020,05,04,05,34,2.30
2020,05,04,05,35,2.30
2020,05,04,05,36,2.30
2020,05,04,05,37,2.20
2020,05,04,05,38,2.20
2020,05,04,05,39,2.30
2020,05,04,05,40,2.30
2020,05,04,05,41,2.40
2020,05,04,05,42,2.40
2020,05,04,05,43,2.40
2020,05,04,05,44,2.40
2020,05,04,05,45,2.40
2020,05,04,05,46,2.40
2020,05,04,05,47,2.40
2020,05,04,05,48,2.40
2020,05,04,05,49,2.40
2020,05,04,05,50,2.40
2020,05,04,05,51,2.40
2020,05,04,05,52,2.30
2020,05,04,05,53,2.40
2020,05,04,05,54,2.40
2020,05,04,05,55,2.40
2020,05,04,05,56,2.40
2020,05,04,05,57,2.40
2020,05,04,05,58,2.40
2020,05,04,05,59,2.40
2020,05,04,06,00,2.50
2020,05,04,06,01,2.50
2020,05,04,06,02,2.60
2020,05,04,06,03,2.60
2020,05,04,06,04,2.60
2020,05,04,06,05,2.70
2020,05,04,06,06,2.70
2020,05,04,06,07,2.80
2020,05,04,06,08,2.80
2020,05,04,06,09,2.90
2020,05,04,06,10,3.00
2020,05,04,06,11,3.20
2020,05,04,06,12,3.30
2020,05,04,06,13,3.40
2020,05,04,06,14,3.50
2020,05,04,06,15,3.60
2020,05,04,06,16,3.70
2020,05,04,06,17,3.80
2020,05,04,06,18,3.80
2020,05,04,06,19,3.90
2020,05,04,06,20,3.90
2020,05,04,06,21,3.90
2020,05,04,06,22,3.90
2020,05,04,06,23,3.90
2020,05,04,06,24,3.90
2020,05,04,06,25,3.90
2020,05,04,06,26,4.00
2020,05,04,06,27,4.00
2020,05,04,06,28,4.10
2020,05,04,06,29,4.10
2020,05,04,06,30,4.10
2020,05,04,06,31,4.00
2020,05,04,06,32,4.00
2020,05,04,06,33,4.00
2020,05,04,06,34,3.90
2020,05,04,06,35,3.80
2020,05,04,06,36,3.80
2020,05,04,06,37,3.70
2020,05,04,06,38,3.60
2020,05,04,06,39,3.60
2020,05,04,06,40,3.50
2020,05,04,06,41,3.50
2020,05,04,06,42,3.50
2020,05,04,06,43,3.50
2020,05,04,06,44,3.40
2020,05,04,06,45,3.40
2020,05,04,06,46,3.40
2020,05,04,06,47,3.40
2020,05,04,06,48,3.50
2020,05,04,06,49,3.50
2020,05,04,06,50,3.50
2020,05,04,06,51,3.50
2020,05,04,06,52,3.50
2020,05,04,06,53,3.50
2020,05,04,06,54,3.60
2020,05,04,06,55,3.60
2020,05,04,06,56,3.70
2020,05,04,06,57,3.70
2020,05,04,06,58,3.80
2020,05,04,06,59,3.90
2020,05,04,07,00,3.90
2020,05,04,07,01,3.90
2020,05,04,07,02,3.90
2020,05,04,07,03,3.90
2020,05,04,07,04,4.00
2020,05,04,07,05,4.00
2020,05,04,07,06,4.10
2020,05,04,07,07,4.10
2020,05,04,07,08,4.10
2020,05,04,07,09,4.20
2020,05,04,07,10,4.20
2020,05,04,07,11,4.30
2020,05,04,07,12,4.30
2020,05,04,07,13,4.40
2020,05,04,07,14,4.40
2020,05,04,07,15,4.50
2020,05,04,07,16,4.50
2020,05,04,07,17,4.60
2020,05,04,07,18,4.60
2020,05,04,07,19,4.70
2020,05,04,07,20,4.70
2020,05,04,07,21,4.70
2020,05,04,07,22,4.70
2020,05,04,07,23,4.80
2020,05,04,07,24,4.80
2020,05,04,07,25,4.90
2020,05,04,07,26,4.90
2020,05,04,07,27,5.00
2020,05,04,07,28,5.00
2020,05,04,07,29,5.00
2020,05,04,07,30,5.00
2020,05,04,07,31,5.00
2020,05,04,07,32,5.10
2020,05,04,07,33,5.10
2020,05,04,07,34,5.10
2020,05,04,07,35,5.20
2020,05,04,07,36,5.20
2020,05,04,07,37,5.20
2020,05,04,07,38,5.30
2020,05,04,07,39,5.40
2020,05,04,07,40,5.40
2020,05,04,07,41,5.40
2020,05,04,07,42,5.50
2020,05,04,07,43,5.60
2020,05,04,07,44,5.60
2020,05,04,07,45,5.70
2020,05,04,07,46,5.70
2020,05,04,07,47,5.80
2020,05,04,07,48,5.90
2020,05,04,07,49,6.00
2020,05,04,07,50,6.10
2020,05,04,07,51,6.20
2020,05,04,07,52,6.30
2020,05,04,07,53,6.40
2020,05,04,07,54,6.40
2020,05,04,07,55,6.50
2020,05,04,07,56,6.50
2020,05,04,07,57,6.60
2020,05,04,07,58,6.70
2020,05,04,07,59,6.70
2020,05,04,08,00,6.80
2020,05,04,08,01,6.80
2020,05,04,08,02,6.80
2020,05,04,08,03,6.80
2020,05,04,08,04,6.90
2020,05,04,08,05,6.90
2020,05,04,08,06,6.90
2020,05,04,08,07,7.00
2020,05,04,08,08,7.00
2020,05,04,08,09,7.00
2020,05,04,08,10,7.10
2020,05,04,08,11,7.10
2020,05,04,08,12,7.10
2020,05,04,08,13,7.10
2020,05,04,08,14,7.20
2020,05,04,08,15,7.20
2020,05,04,08,16,7.20
2020,05,04,08,17,7.20
2020,05,04,08,18,7.20
2020,05,04,08,19,7.30
2020,05,04,08,20,7.30
2020,05,04,08,21,7.30
2020,05,04,08,22,7.30
2020,05,04,08,23,7.30
2020,05,04,08,24,7.30
2020,05,04,08,25,7.30
2020,05,04,08,26,7.30
2020,05,04,08,27,7.30
2020,05,04,08,28,7.30
2020,05,04,08,29,7.40
2020,05,04,08,30,7.40
2020,05,04,08,31,7.40
2020,05,04,08,32,7.40
2020,05,04,08,33,7.40
2020,05,04,08,34,7.50
2020,05,04,08,35,7.50
2020,05,04,08,36,7.60
2020,05,04,08,37,7.60
2020,05,04,08,38,7.60
2020,05,04,08,39,7.60
2020,05,04,08,40,7.60
2020,05,04,08,41,7.70
2020,05,04,08,42,7.70
2020,05,04,08,43,7.70
2020,05,04,08,44,7.70
2020,05,04,08,45,7.70
2020,05,04,08,46,7.80
2020,05,04,08,47,7.70
2020,05,04,08,48,7.80
2020,05,04,08,49,7.80
2020,05,04,08,50,7.80
2020,05,04,08,51,7.80
2020,05,04,08,52,7.80
2020,05,04,08,53,7.80
2020,05,04,08,54,7.80
2020,05,04,08,55,7.80
2020,05,04,08,56,7.80
2020,05,04,08,57,7.80
2020,05,04,08,58,7.80
2020,05,04,08,59,7.80
2020,05,04,09,00,7.80
2020,05,04,09,01,7.80
2020,05,04,09,02,7.70
2020,05,04,09,03,7.80
2020,05,04,09,04,7.80
2020,05,04,09,05,7.80
2020,05,04,09,06,7.80
2020,05,04,09,07,7.80
2020,05,04,09,08,7.80
2020,05,04,09,09,7.80
2020,05,04,09,10,7.80
2020,05,04,09,11,7.80
2020,05,04,09,12,7.80
2020,05,04,09,13,7.80
2020,05,04,09,14,7.80
2020,05,04,09,15,7.80
2020,05,04,09,16,7.80
2020,05,04,09,17,7.80
2020,05,04,09,18,7.80
2020,05,04,09,19,7.80
2020,05,04,09,20,7.90
2020,05,04,09,21,7.90
2020,05,04,09,22,7.90
2020,05,04,09,23,8.00
2020,05,04,09,24,8.10
2020,05,04,09,25,8.10
2020,05,04,09,26,8.10
2020,05,04,09,27,8.20
2020,05,04,09,28,8.30
2020,05,04,09,29,8.30
2020,05,04,09,30,8.30
2020,05,04,09,31,8.40
2020,05,04,09,32,8.40
2020,05,04,09,33,8.50
2020,05,04,09,34,8.50
2020,05,04,09,35,8.50
2020,05,04,09,36,8.60
2020,05,04,09,37,8.60
2020,05,04,09,38,8.70
2020,05,04,09,39,8.70
2020,05,04,09,40,8.70
2020,05,04,09,41,8.80
2020,05,04,09,42,8.80
2020,05,04,09,43,8.80
2020,05,04,09,44,8.80
2020,05,04,09,45,8.80
2020,05,04,09,46,8.90
2020,05,04,09,47,8.90
2020,05,04,09,48,8.90
2020,05,04,09,49,9.00
2020,05,04,09,50,9.00
2020,05,04,09,51,9.10
2020,05,04,09,52,9.10
2020,05,04,09,53,9.20
2020,05,04,09,54,9.20
2020,05,04,09,55,9.20
2020,05,04,09,56,9.20
2020,05,04,09,57,9.20
2020,05,04,09,58,9.20
2020,05,04,09,59,9.20
2020,05,04,10,00,9.20
2020,05,04,10,01,9.20
2020,05,04,10,02,9.20
2020,05,04,10,03,9.30
2020,05,04,10,04,9.30
2020,05,04,10,05,9.30
2020,05,04,10,06,9.30
2020,05,04,10,07,9.40
2020,05,04,10,08,9.40
2020,05,04,10,09,9.40
2020,05,04,10,10,9.40
2020,05,04,10,11,9.40
2020,05,04,10,12,9.50
2020,05,04,10,13,9.50
2020,05,04,10,14,9.40
2020,05,04,10,15,9.30
2020,05,04,10,16,9.20
2020,05,04,10,17,9.20
2020,05,04,10,18,9.20
2020,05,04,10,19,9.20
2020,05,04,10,20,9.20
2020,05,04,10,21,9.20
2020,05,04,10,22,9.20
2020,05,04,10,23,9.30
2020,05,04,10,24,9.30
2020,05,04,10,25,9.20
2020,05,04,10,26,9.20
2020,05,04,10,27,9.20
2020,05,04,10,28,9.20
2020,05,04,10,29,9.20
2020,05,04,10,30,9.20
2020,05,04,10,31,9.10
2020,05,04,10,32,9.10
2020,05,04,10,33,9.10
2020,05,04,10,34,9.10
2020,05,04,10,35,9.10
2020,05,04,10,36,9.10
2020,05,04,10,37,9.10
2020,05,04,10,38,9.10
2020,05,04,10,39,9.10
2020,05,04,10,40,9.10
2020,05,04,10,41,9.10
2020,05,04,10,42,9.10
2020,05,04,10,43,9.10
2020,05,04,10,44,9.10
2020,05,04,10,45,9.10
2020,05,04,10,46,9.10
2020,05,04,10,47,9.20
2020,05,04,10,48,9.20
2020,05,04,10,49,9.20
2020,05,04,10,50,9.20
2020,05,04,10,51,9.20
2020,05,04,10,52,9.20
2020,05,04,10,53,9.20
2020,05,04,10,54,9.30
2020,05,04,10,55,9.30
2020,05,04,10,56,9.30
2020,05,04,10,57,9.40
2020,05,04,10,58,9.40
2020,05,04,10,59,9.50
2020,05,04,11,00,9.50
2020,05,04,11,01,9.40
2020,05,04,11,02,9.40
2020,05,04,11,03,9.40
2020,05,04,11,04,9.40
2020,05,04,11,05,9.40
2020,05,04,11,06,9.40
2020,05,04,11,07,9.40
2020,05,04,11,08,9.40
2020,05,04,11,09,9.40
2020,05,04,11,10,9.40
2020,05,04,11,11,9.40
2020,05,04,11,12,9.40
2020,05,04,11,13,9.40
2020,05,04,11,14,9.40
2020,05,04,11,15,9.40
2020,05,04,11,16,9.40
2020,05,04,11,17,9.40
2020,05,04,11,18,9.40
2020,05,04,11,19,9.40
2020,05,04,11,20,9.40
2020,05,04,11,21,9.40
2020,05,04,11,22,9.40
2020,05,04,11,23,9.40
2020,05,04,11,24,9.40
2020,05,04,11,25,9.40
2020,05,04,11,26,9.40
2020,05,04,11,27,9.40
2020,05,04,11,28,9.40
2020,05,04,11,29,9.40
2020,05,04,11,30,9.40
2020,05,04,11,31,9.40
2020,05,04,11,32,9.40
2020,05,04,11,33,9.40
2020,05,04,11,34,9.40
2020,05,04,11,35,9.40
2020,05,04,11,36,9.40
2020,05,04,11,37,9.40
2020,05,04,11,38,9.40
2020,05,04,11,39,9.50
2020,05,04,11,40,9.50
2020,05,04,11,41,9.50
2020,05,04,11,42,9.50
2020,05,04,11,43,9.50
2020,05,04,11,44,9.50
2020,05,04,11,45,9.50
2020,05,04,11,46,9.60
2020,05,04,11,47,9.60
2020,05,04,11,48,9.60
2020,05,04,11,49,9.70
2020,05,04,11,50,9.70
2020,05,04,11,51,9.80
2020,05,04,11,52,9.80
2020,05,04,11,53,9.80
2020,05,04,11,54,9.80
2020,05,04,11,55,9.90
2020,05,04,11,56,10.00
2020,05,04,11,57,10.10
2020,05,04,11,58,10.10
2020,05,04,11,59,10.20
2020,05,04,12,00,10.20
2020,05,04,12,01,10.20
2020,05,04,12,02,10.20
2020,05,04,12,03,10.20
2020,05,04,12,04,10.30
2020,05,04,12,05,10.30
2020,05,04,12,06,10.30
2020,05,04,12,07,10.40
2020,05,04,12,08,10.40
2020,05,04,12,09,10.50
2020,05,04,12,10,10.50
2020,05,04,12,11,10.40
2020,05,04,12,12,10.40
2020,05,04,12,13,10.40
2020,05,04,12,14,10.30
2020,05,04,12,15,10.20
2020,05,04,12,16,10.20
2020,05,04,12,17,10.20
2020,05,04,12,18,10.20
2020,05,04,12,19,10.20
2020,05,04,12,20,10.20
2020,05,04,12,21,10.20
2020,05,04,12,22,10.20
2020,05,04,12,23,10.10
2020,05,04,12,24,10.10
2020,05,04,12,25,10.10
2020,05,04,12,26,10.10
2020,05,04,12,27,10.20
2020,05,04,12,28,10.30
2020,05,04,12,29,10.30
2020,05,04,12,30,10.30
2020,05,04,12,31,10.30
2020,05,04,12,32,10.30
2020,05,04,12,33,10.30
2020,05,04,12,34,10.20
2020,05,04,12,35,10.20
2020,05,04,12,36,10.20
2020,05,04,12,37,10.30
2020,05,04,12,38,10.30
2020,05,04,12,39,10.30
2020,05,04,12,40,10.30
2020,05,04,12,41,10.30
2020,05,04,12,42,10.30
2020,05,04,12,43,10.30
2020,05,04,12,44,10.40
2020,05,04,12,45,10.30
2020,05,04,12,46,10.30
2020,05,04,12,47,10.30
2020,05,04,12,48,10.30
2020,05,04,12,49,10.20
2020,05,04,12,50,10.10
2020,05,04,12,51,10.10
2020,05,04,12,52,10.10
2020,05,04,12,53,10.10
2020,05,04,12,54,10.10
2020,05,04,12,55,10.00
2020,05,04,12,56,10.10
2020,05,04,12,57,10.10
2020,05,04,12,58,10.10
2020,05,04,12,59,10.10
2020,05,04,13,00,10.10
2020,05,04,13,01,10.00
2020,05,04,13,02,10.00
2020,05,04,13,03,9.90
2020,05,04,13,04,10.00
2020,05,04,13,05,9.90
2020,05,04,13,06,10.00
2020,05,04,13,07,9.90
2020,05,04,13,08,9.90
2020,05,04,13,09,9.90
2020,05,04,13,10,10.00
2020,05,04,13,11,10.00
2020,05,04,13,12,10.00
2020,05,04,13,13,10.00
2020,05,04,13,14,10.00
2020,05,04,13,15,10.00
2020,05,04,13,16,10.00
2020,05,04,13,17,10.00
2020,05,04,13,18,10.00
2020,05,04,13,19,10.00
2020,05,04,13,20,10.00
2020,05,04,13,21,10.10
2020,05,04,13,22,10.10
2020,05,04,13,23,10.10
2020,05,04,13,24,10.10
2020,05,04,13,25,10.10
2020,05,04,13,26,10.00
2020,05,04,13,27,10.00
2020,05,04,13,28,10.00
2020,05,04,13,29,10.00
2020,05,04,13,30,10.10
2020,05,04,13,31,10.10
2020,05,04,13,32,10.10
2020,05,04,13,33,10.10
2020,05,04,13,34,10.00
2020,05,04,13,35,10.00
2020,05,04,13,36,9.90
2020,05,04,13,37,9.90
2020,05,04,13,38,9.80
2020,05,04,13,39,9.80
2020,05,04,13,40,9.80
2020,05,04,13,41,9.80
2020,05,04,13,42,9.80
2020,05,04,13,43,9.80
2020,05,04,13,44,9.80
2020,05,04,13,45,9.80
2020,05,04,13,46,9.80
2020,05,04,13,47,9.80
2020,05,04,13,48,9.80
2020,05,04,13,49,9.90
2020,05,04,13,50,9.90
2020,05,04,13,51,9.90
2020,05,04,13,52,9.90
2020,05,04,13,53,9.90
2020,05,04,13,54,9.90
2020,05,04,13,55,9.90
2020,05,04,13,56,9.90
2020,05,04,13,57,9.90
2020,05,04,13,58,9.90
2020,05,04,13,59,10.00
2020,05,04,14,00,10.00
2020,05,04,14,01,9.90
2020,05,04,14,02,9.90
2020,05,04,14,03,9.80
2020,05,04,14,04,9.80
2020,05,04,14,05,9.80
2020,05,04,14,06,9.80
2020,05,04,14,07,9.70
2020,05,04,14,08,9.80
2020,05,04,14,09,9.80
2020,05,04,14,10,9.80
2020,05,04,14,11,9.80
2020,05,04,14,12,9.80
2020,05,04,14,13,9.80
2020,05,04,14,14,9.90
2020,05,04,14,15,9.90
2020,05,04,14,16,9.90
2020,05,04,14,17,9.90
2020,05,04,14,18,9.90
2020,05,04,14,19,9.90
2020,05,04,14,20,9.90
2020,05,04,14,21,9.90
2020,05,04,14,22,9.90
2020,05,04,14,23,9.90
2020,05,04,14,24,10.00
2020,05,04,14,25,10.00
2020,05,04,14,26,10.00
2020,05,04,14,27,10.00
2020,05,04,14,28,10.00
2020,05,04,14,29,10.10
2020,05,04,14,30,10.10
2020,05,04,14,31,10.10
2020,05,04,14,32,10.10
2020,05,04,14,33,10.10
2020,05,04,14,34,10.10
2020,05,04,14,35,10.10
2020,05,04,14,36,10.10
2020,05,04,14,37,10.10
2020,05,04,14,38,10.10
2020,05,04,14,39,10.10
2020,05,04,14,40,10.10
2020,05,04,14,41,10.10
2020,05,04,14,42,10.10
2020,05,04,14,43,10.10
2020,05,04,14,44,10.10
2020,05,04,14,45,10.20
2020,05,04,14,46,10.20
2020,05,04,14,47,10.30
2020,05,04,14,48,10.30
2020,05,04,14,49,10.40
2020,05,04,14,50,10.40
2020,05,04,14,51,10.40
2020,05,04,14,52,10.50
2020,05,04,14,53,10.70
2020,05,04,14,54,10.70
2020,05,04,14,55,10.70
2020,05,04,14,56,10.70
2020,05,04,14,57,10.70
2020,05,04,14,58,10.60
2020,05,04,14,59,10.60
2020,05,04,15,00,10.60
2020,05,04,15,01,10.60
2020,05,04,15,02,10.60
2020,05,04,15,03,10.60
2020,05,04,15,04,10.60
2020,05,04,15,05,10.70
2020,05,04,15,06,10.80
2020,05,04,15,07,10.90
2020,05,04,15,08,10.90
2020,05,04,15,09,10.90
2020,05,04,15,10,10.90
2020,05,04,15,11,10.90
2020,05,04,15,12,10.90
2020,05,04,15,13,10.90
2020,05,04,15,14,10.90
2020,05,04,15,15,10.90
2020,05,04,15,16,10.90
2020,05,04,15,17,10.90
2020,05,04,15,18,10.90
2020,05,04,15,19,10.90
2020,05,04,15,20,10.80
2020,05,04,15,21,10.80
2020,05,04,15,22,10.80
2020,05,04,15,23,10.80
2020,05,04,15,24,10.80
2020,05,04,15,25,10.80
2020,05,04,15,26,10.80
2020,05,04,15,27,10.90
2020,05,04,15,28,10.90
2020,05,04,15,29,10.90
2020,05,04,15,30,10.90
2020,05,04,15,31,10.90
2020,05,04,15,32,10.90
2020,05,04,15,33,10.80
2020,05,04,15,34,10.90
2020,05,04,15,35,10.90
2020,05,04,15,36,10.90
2020,05,04,15,37,10.90
2020,05,04,15,38,10.90
2020,05,04,15,39,10.90
2020,05,04,15,40,11.00
2020,05,04,15,41,11.00
2020,05,04,15,42,10.90
2020,05,04,15,43,10.90
2020,05,04,15,44,10.90
2020,05,04,15,45,10.90
2020,05,04,15,46,10.90
2020,05,04,15,47,10.90
2020,05,04,15,48,10.90
2020,05,04,15,49,10.90
2020,05,04,15,50,10.80
2020,05,04,15,51,10.80
2020,05,04,15,52,10.80
2020,05,04,15,53,10.80
2020,05,04,15,54,10.80
2020,05,04,15,55,10.80
2020,05,04,15,56,10.80
2020,05,04,15,57,10.80
2020,05,04,15,58,10.70
2020,05,04,15,59,10.70
2020,05,04,16,00,10.70
2020,05,04,16,01,10.70
2020,05,04,16,02,10.70
2020,05,04,16,03,10.70
2020,05,04,16,04,10.60
2020,05,04,16,05,10.60
2020,05,04,16,06,10.60
2020,05,04,16,07,10.60
2020,05,04,16,08,10.60
2020,05,04,16,09,10.60
2020,05,04,16,10,10.60
2020,05,04,16,11,10.60
2020,05,04,16,12,10.60
2020,05,04,16,13,10.60
2020,05,04,16,14,10.60
2020,05,04,16,15,10.60
2020,05,04,16,16,10.60
2020,05,04,16,17,10.60
2020,05,04,16,18,10.60
2020,05,04,16,19,10.60
2020,05,04,16,20,10.60
2020,05,04,16,21,10.70
2020,05,04,16,22,10.70
2020,05,04,16,23,10.60
2020,05,04,16,24,10.60
2020,05,04,16,25,10.60
2020,05,04,16,26,10.60
2020,05,04,16,27,10.70
2020,05,04,16,28,10.70
2020,05,04,16,29,10.70
2020,05,04,16,30,10.70
2020,05,04,16,31,10.70
2020,05,04,16,32,10.70
2020,05,04,16,33,10.70
2020,05,04,16,34,10.70
2020,05,04,16,35,10.70
2020,05,04,16,36,10.70
2020,05,04,16,37,10.70
2020,05,04,16,38,10.70
2020,05,04,16,39,10.70
2020,05,04,16,40,10.70
2020,05,04,16,41,10.70
2020,05,04,16,42,10.70
2020,05,04,16,43,10.70
2020,05,04,16,44,10.70
2020,05,04,16,45,10.70
2020,05,04,16,46,10.70
2020,05,04,16,47,10.70
2020,05,04,16,48,10.70
2020,05,04,16,49,10.70
2020,05,04,16,50,10.70
2020,05,04,16,51,10.70
2020,05,04,16,52,10.70
2020,05,04,16,53,10.60
2020,05,04,16,54,10.60
2020,05,04,16,55,10.60
2020,05,04,16,56,10.60
2020,05,04,16,57,10.60
2020,05,04,16,58,10.60
2020,05,04,16,59,10.60
2020,05,04,17,00,10.60
2020,05,04,17,01,10.60
2020,05,04,17,02,10.50
2020,05,04,17,03,10.50
2020,05,04,17,04,10.50
2020,05,04,17,05,10.50
2020,05,04,17,06,10.50
2020,05,04,17,07,10.50
2020,05,04,17,08,10.50
2020,05,04,17,09,10.50
2020,05,04,17,10,10.60
2020,05,04,17,11,10.60
2020,05,04,17,12,10.60
2020,05,04,17,13,10.60
2020,05,04,17,14,10.60
2020,05,04,17,15,10.60
2020,05,04,17,16,10.60
2020,05,04,17,17,10.60
2020,05,04,17,18,10.60
2020,05,04,17,19,10.60
2020,05,04,17,20,10.60
2020,05,04,17,21,10.60
2020,05,04,17,22,10.60
2020,05,04,17,23,10.60
2020,05,04,17,24,10.60
2020,05,04,17,25,10.60
2020,05,04,17,26,10.60
2020,05,04,17,27,10.60
2020,05,04,17,28,10.60
2020,05,04,17,29,10.60
2020,05,04,17,30,10.60
2020,05,04,17,31,10.60
2020,05,04,17,32,10.60
2020,05,04,17,33,10.60
2020,05,04,17,34,10.70
2020,05,04,17,35,10.70
2020,05,04,17,36,10.80
2020,05,04,17,37,10.80
2020,05,04,17,38,10.80
2020,05,04,17,39,10.90
2020,05,04,17,40,10.90
2020,05,04,17,41,10.90
2020,05,04,17,42,10.90
2020,05,04,17,43,10.90
2020,05,04,17,44,10.90
2020,05,04,17,45,10.80
2020,05,04,17,46,10.80
2020,05,04,17,47,10.80
2020,05,04,17,48,10.80
2020,05,04,17,49,10.80
2020,05,04,17,50,10.70
2020,05,04,17,51,10.70
2020,05,04,17,52,10.80